Regional Weather Roundup
Issued by NWS

Home | Current Version | Previous Version | Text Only | Print | Product List | Glossary On
Versions: 1 2 3 4 5 6 7 8 9 10 11 12 13 14 15 16 17 18 19 20 21 22 23 24 25 26 27 28 29 30 31 32 33 34 35 36 37 38 39 40 41 42 43 44 45 46 47 48 49 50
497
ASUS45 KBOI 172210
RWRID

IDAHO REGIONAL WEATHER ROUNDUP
NATIONAL WEATHER SERVICE BOISE ID
400 PM MDT MON MAY 17 2021

NOTE: "FAIR" INDICATES FEW OR NO CLOUDS BELOW 12000 FEET
WITH NO SIGNIFICANT WEATHER AND/OR OBSTRUCTIONS TO VISIBILITY

IDZ012-014-172300-
SOUTHWEST IDAHO


CITY           SKY/WX    TMP DP  RH WIND       PRES   REMARKS
BOISE          FAIR      84  30  14 VRB3G17   29.82F
CALDWELL       FAIR      86  39  19 N6        29.80
MOUNTAIN HOME  FAIR      84  31  15 NW7       29.81F
$$

IDZ016-017-172300-
SOUTHCENTRAL IDAHO


CITY           SKY/WX    TMP DP  RH WIND       PRES   REMARKS
BURLEY         FAIR      78  38  23 VRB5      29.88F
JEROME         FAIR      77  35  21 MISG      29.88F
TWIN FALLS     FAIR      80  37  21 N8        29.88F
$$

IDZ019>023-172300-
SOUTHEAST IDAHO


CITY           SKY/WX    TMP DP  RH WIND       PRES   REMARKS
IDAHO FALLS    FAIR      76  38  25 S7        29.89F
POCATELLO      FAIR      76  39  26 VRB3      29.89F
REXBURG        FAIR      76  35  22 MISG      29.89F
$$

IDZ006-010-011-018-031-032-172300-
CENTRAL IDAHO MOUNTAINS


CITY           SKY/WX    TMP DP  RH WIND       PRES   REMARKS
MCCALL         FAIR      74  32  21 W13G18    29.91F
HAILEY         SUNNY     75  41  29 SW6       29.94F
STANLEY          N/A     72  30  21 MISG      29.98F
SALMON         FAIR     N/A N/A N/A CALM      29.78F
CHALLIS        FAIR      78  25  14 SE6       29.84F
$$

IDZ002-004-006-007-026-172300-
NORTHERN IDAHO


CITY           SKY/WX    TMP DP  RH WIND       PRES   REMARKS
LEWISTON       FAIR      87  40  19 N8G18     29.74F
LOWELL           N/A     88  37  16 VRB7      29.71F
COEUR D`ALENE  FAIR      80  42  25 W17G23    29.78F
MULLAN PASS    FAIR      62  33  33 SW9G16    29.94F
$$




USA.gov is the U.S. government's official web portal to all federal, state and local government web resources and services.